Home > Weather > Oklahoma City > Past weeks

Flag for USA Past Weather in Oklahoma City, Oklahoma, USA — Yesterday and Last 2 Weeks

Now
92 °F

Broken clouds.


Feels Like: 95 °F
Forecast: 69 / 93 °F
Wind: 13 mph from South

Location: Will Rogers World Airport

Current Time: Jun 30, 2016 at 6:18:07 PM

Latest Report: Jun 30, 2016 at 5:52 PM


Visibility: 10 mi

Pressure: 29.88 "Hg

Humidity: 44%

Dew Point: 67 °F

Location of Oklahoma CityLocation

Past Weather in Oklahoma City — Graph

°F

Oklahoma City Temperature Yesterday

Maximum temperature yesterday: 91 °F (at 4:52 PM)
Minimum temperature yesterday: 67 °F (at 5:52 AM)
Average temperature yesterday: 80 °F

High & Low Weather Summary for the Past Weeks

 TemperatureHumidityPressure
High96 °F (Jun 17, 3:52 PM)100% (Jun 27, 4:52 AM)30.17 "Hg (Jun 27, 4:52 AM)
Low67 °F (Jun 29, 5:52 AM)29% (Jun 21, 4:52 PM)29.77 "Hg (Jun 15, 6:52 PM)
Average82 °F68%29.98 "Hg
* Reported Jun 15 4:52 PM — Jun 30 4:52 PM, Oklahoma City, Weather by CustomWeather, © 2016

Note: Actual official high and low records may vary slightly from our data, if they occured in-between our weather recording intervals... More about our weather records

Advertising

Oklahoma City Weather History for the Previous 24 Hours

Scroll right to see more
 ConditionsComfort  
Time TempWeatherWind HumidityBarometerVisibility
4:52 PM
Thu, Jun 30
92 °FBroken clouds.14 mph44%29.90 "Hg10 mi
3:52 PM90 °FPartly sunny.12 mph50%29.92 "Hg10 mi
2:52 PM88 °FPartly sunny.10 mph54%29.93 "Hg10 mi
1:52 PM88 °FBroken clouds.12 mph55%29.95 "Hg9 mi
12:52 PM87 °FBroken clouds.10 mph55%29.97 "Hg10 mi
11:52 AM86 °FBroken clouds.13 mph57%29.99 "Hg10 mi
10:52 AM82 °FPartly sunny.12 mph63%29.98 "Hg10 mi
9:52 AM79 °FPartly sunny.12 mph69%29.99 "Hg10 mi
8:52 AM77 °FPartly sunny.9 mph74%29.99 "Hg10 mi
7:52 AM73 °FBroken clouds.8 mph84%29.98 "Hg10 mi
6:52 AM71 °FPassing clouds.5 mph84%30.00 "Hg10 mi
5:52 AM70 °FPassing clouds.6 mph90%29.97 "Hg10 mi
4:52 AM70 °FPassing clouds.5 mph90%29.96 "Hg10 mi
3:52 AM71 °FPassing clouds.5 mph87%29.96 "Hg10 mi
2:52 AM72 °FPassing clouds.6 mph87%29.95 "Hg10 mi
1:52 AM72 °FPassing clouds.6 mph91%29.96 "Hg10 mi
12:52 AM73 °FPassing clouds.7 mph88%29.98 "Hg10 mi
11:52 PM
Wed, Jun 29
75 °FPassing clouds.5 mph85%29.97 "Hg10 mi
10:52 PM76 °FPassing clouds.5 mph80%29.97 "Hg10 mi
9:52 PM76 °FPassing clouds.7 mph77%29.94 "Hg10 mi
8:52 PM80 °FPassing clouds.7 mph64%29.93 "Hg10 mi
7:52 PM86 °FPassing clouds.8 mph49%29.93 "Hg10 mi
6:52 PM89 °FScattered clouds.10 mph45%29.94 "Hg10 mi
Weather by CustomWeather, © 2016

See weather overviewHow to use our weather pages